owner,sensor,date,latitude,longitude,air_pressure(mBar),qcFlag 
COMPS,ioos:station:USF.COMPS:CAM:1,2013-11-11T19:00:00Z,27.7650,-82.6490,1017.9,1111122 
COMPS,ioos:station:USF.COMPS:CAM:1,2013-11-11T19:06:00Z,27.7650,-82.6490,1017.81,1111122 
COMPS,ioos:station:USF.COMPS:CAM:1,2013-11-11T19:12:00Z,27.7650,-82.6490,1017.8,1111122 
COMPS,ioos:station:USF.COMPS:CAM:1,2013-11-11T19:18:00Z,27.7650,-82.6490,1017.77,1111122 
COMPS,ioos:station:USF.COMPS:CAM:1,2013-11-11T19:24:00Z,27.7650,-82.6490,1017.66,1111122 
COMPS,ioos:station:USF.COMPS:CAM:1,2013-11-11T19:30:00Z,27.7650,-82.6490,1017.61,1111122 
COMPS,ioos:station:USF.COMPS:CAM:1,2013-11-11T19:36:00Z,27.7650,-82.6490,1017.54,1111122 
COMPS,ioos:station:USF.COMPS:CAM:1,2013-11-11T19:42:00Z,27.7650,-82.6490,1017.53,1111122 
COMPS,ioos:station:USF.COMPS:CAM:1,2013-11-11T19:48:00Z,27.7650,-82.6490,1017.52,1111122 
COMPS,ioos:station:USF.COMPS:CAM:1,2013-11-11T19:54:00Z,27.7650,-82.6490,1017.5,1111122 
COMPS,ioos:station:USF.COMPS:CAM:1,2013-11-11T20:00:00Z,27.7650,-82.6490,1017.44,1111122 
COMPS,ioos:station:USF.COMPS:CAM:1,2013-11-11T20:06:00Z,27.7650,-82.6490,1017.45,1111122 
COMPS,ioos:station:USF.COMPS:CAM:1,2013-11-11T20:12:00Z,27.7650,-82.6490,1017.48,1111122 
COMPS,ioos:station:USF.COMPS:CAM:1,2013-11-11T20:18:00Z,27.7650,-82.6490,1017.4,1111122 
COMPS,ioos:station:USF.COMPS:CAM:1,2013-11-11T20:24:00Z,27.7650,-82.6490,1017.41,1111122 
COMPS,ioos:station:USF.COMPS:CAM:1,2013-11-11T20:30:00Z,27.7650,-82.6490,1017.32,1111122 
COMPS,ioos:station:USF.COMPS:CAM:1,2013-11-11T20:36:00Z,27.7650,-82.6490,1017.32,1111122 
COMPS,ioos:station:USF.COMPS:CAM:1,2013-11-11T20:42:00Z,27.7650,-82.6490,1017.36,1111122 
COMPS,ioos:station:USF.COMPS:CAM:1,2013-11-11T20:48:00Z,27.7650,-82.6490,1017.3,1111122 
COMPS,ioos:station:USF.COMPS:CAM:1,2013-11-11T20:54:00Z,27.7650,-82.6490,1017.37,1111122 
COMPS,ioos:station:USF.COMPS:CAM:1,2013-11-11T21:00:00Z,27.7650,-82.6490,1017.36,1111122 
COMPS,ioos:station:USF.COMPS:CAM:1,2013-11-11T21:06:00Z,27.7650,-82.6490,1017.4,1111122 
COMPS,ioos:station:USF.COMPS:CAM:1,2013-11-11T21:12:00Z,27.7650,-82.6490,1017.38,1111122 
COMPS,ioos:station:USF.COMPS:CAM:1,2013-11-11T21:18:00Z,27.7650,-82.6490,1017.4,1111122 
COMPS,ioos:station:USF.COMPS:CAM:1,2013-11-11T21:24:00Z,27.7650,-82.6490,1017.4,1111122 
COMPS,ioos:station:USF.COMPS:CAM:1,2013-11-11T21:30:00Z,27.7650,-82.6490,1017.45,1111122 
COMPS,ioos:station:USF.COMPS:CAM:1,2013-11-11T21:36:00Z,27.7650,-82.6490,1017.53,1111122 
COMPS,ioos:station:USF.COMPS:CAM:1,2013-11-11T21:42:00Z,27.7650,-82.6490,1017.53,1111122 
COMPS,ioos:station:USF.COMPS:CAM:1,2013-11-11T21:48:00Z,27.7650,-82.6490,1017.52,1111122 
COMPS,ioos:station:USF.COMPS:CAM:1,2013-11-11T21:54:00Z,27.7650,-82.6490,1017.53,1111122 
COMPS,ioos:station:USF.COMPS:CAM:1,2013-11-11T22:00:00Z,27.7650,-82.6490,1017.52,1111122 
COMPS,ioos:station:USF.COMPS:CAM:1,2013-11-11T22:06:00Z,27.7650,-82.6490,1017.48,1111122 
COMPS,ioos:station:USF.COMPS:CAM:1,2013-11-11T22:12:00Z,27.7650,-82.6490,1017.38,1111122 
COMPS,ioos:station:USF.COMPS:CAM:1,2013-11-11T22:18:00Z,27.7650,-82.6490,1017.38,1111122 
COMPS,ioos:station:USF.COMPS:CAM:1,2013-11-11T22:24:00Z,27.7650,-82.6490,1017.38,1111122 
COMPS,ioos:station:USF.COMPS:CAM:1,2013-11-11T22:30:00Z,27.7650,-82.6490,1017.4,1111122 
COMPS,ioos:station:USF.COMPS:CAM:1,2013-11-11T22:36:00Z,27.7650,-82.6490,1017.46,1111122 
COMPS,ioos:station:USF.COMPS:CAM:1,2013-11-11T22:42:00Z,27.7650,-82.6490,1017.38,1111122 
COMPS,ioos:station:USF.COMPS:CAM:1,2013-11-11T22:48:00Z,27.7650,-82.6490,1017.37,1111122 
COMPS,ioos:station:USF.COMPS:CAM:1,2013-11-11T22:54:00Z,27.7650,-82.6490,1017.38,1111122 
COMPS,ioos:station:USF.COMPS:CAM:1,2013-11-11T23:00:00Z,27.7650,-82.6490,1017.45,1111122 
COMPS,ioos:station:USF.COMPS:CAM:1,2013-11-11T23:06:00Z,27.7650,-82.6490,1017.41,1111122 
COMPS,ioos:station:USF.COMPS:CAM:1,2013-11-11T23:12:00Z,27.7650,-82.6490,1017.42,1111122 
COMPS,ioos:station:USF.COMPS:CAM:1,2013-11-11T23:18:00Z,27.7650,-82.6490,1017.52,1111122 
COMPS,ioos:station:USF.COMPS:CAM:1,2013-11-11T23:24:00Z,27.7650,-82.6490,1017.64,1111122 
COMPS,ioos:station:USF.COMPS:CAM:1,2013-11-11T23:30:00Z,27.7650,-82.6490,1017.64,1111122 
COMPS,ioos:station:USF.COMPS:CAM:1,2013-11-11T23:36:00Z,27.7650,-82.6490,1017.64,1111122 
COMPS,ioos:station:USF.COMPS:CAM:1,2013-11-11T23:42:00Z,27.7650,-82.6490,1017.72,1111122 
COMPS,ioos:station:USF.COMPS:CAM:1,2013-11-11T23:48:00Z,27.7650,-82.6490,1017.76,1111122 
COMPS,ioos:station:USF.COMPS:CAM:1,2013-11-11T23:54:00Z,27.7650,-82.6490,1017.77,1111122 
COMPS,ioos:station:USF.COMPS:CAM:1,2013-11-12T00:00:00Z,27.7650,-82.6490,1017.81,1111122 
COMPS,ioos:station:USF.COMPS:CAM:1,2013-11-12T00:06:00Z,27.7650,-82.6490,1017.88,1111122 
COMPS,ioos:station:USF.COMPS:CAM:1,2013-11-12T00:12:00Z,27.7650,-82.6490,1017.9,1111122 
COMPS,ioos:station:USF.COMPS:CAM:1,2013-11-12T00:18:00Z,27.7650,-82.6490,1017.97,1111122 
COMPS,ioos:station:USF.COMPS:CAM:1,2013-11-12T00:24:00Z,27.7650,-82.6490,1018.04,1111122 
COMPS,ioos:station:USF.COMPS:CAM:1,2013-11-12T00:30:00Z,27.7650,-82.6490,1017.98,1111122 
COMPS,ioos:station:USF.COMPS:CAM:1,2013-11-12T00:36:00Z,27.7650,-82.6490,1018.02,1111122 
COMPS,ioos:station:USF.COMPS:CAM:1,2013-11-12T00:42:00Z,27.7650,-82.6490,1018.04,1111122 
COMPS,ioos:station:USF.COMPS:CAM:1,2013-11-12T00:48:00Z,27.7650,-82.6490,1018.04,1111122 
COMPS,ioos:station:USF.COMPS:CAM:1,2013-11-12T00:54:00Z,27.7650,-82.6490,1018.08,1111122 
COMPS,ioos:station:USF.COMPS:CAM:1,2013-11-12T01:00:00Z,27.7650,-82.6490,1018.17,1111122 
COMPS,ioos:station:USF.COMPS:CAM:1,2013-11-12T01:06:00Z,27.7650,-82.6490,1018.13,1111122 
COMPS,ioos:station:USF.COMPS:CAM:1,2013-11-12T01:12:00Z,27.7650,-82.6490,1018.09,1111122 
COMPS,ioos:station:USF.COMPS:CAM:1,2013-11-12T01:18:00Z,27.7650,-82.6490,1018.18,1111122 
COMPS,ioos:station:USF.COMPS:CAM:1,2013-11-12T01:24:00Z,27.7650,-82.6490,1018.22,1111122 
COMPS,ioos:station:USF.COMPS:CAM:1,2013-11-12T01:30:00Z,27.7650,-82.6490,1018.28,1111122 
COMPS,ioos:station:USF.COMPS:CAM:1,2013-11-12T01:36:00Z,27.7650,-82.6490,1018.3,1111122 
COMPS,ioos:station:USF.COMPS:CAM:1,2013-11-12T01:42:00Z,27.7650,-82.6490,1018.26,1111122 
COMPS,ioos:station:USF.COMPS:CAM:1,2013-11-12T01:48:00Z,27.7650,-82.6490,1018.25,1111122 
COMPS,ioos:station:USF.COMPS:CAM:1,2013-11-12T01:54:00Z,27.7650,-82.6490,1018.26,1111122 
COMPS,ioos:station:USF.COMPS:CAM:1,2013-11-12T02:00:00Z,27.7650,-82.6490,1018.28,1111122 
COMPS,ioos:station:USF.COMPS:CAM:1,2013-11-12T02:06:00Z,27.7650,-82.6490,1018.26,1111122 
COMPS,ioos:station:USF.COMPS:CAM:1,2013-11-12T02:12:00Z,27.7650,-82.6490,1018.3,1111122 
COMPS,ioos:station:USF.COMPS:CAM:1,2013-11-12T02:18:00Z,27.7650,-82.6490,1018.41,1111122 
COMPS,ioos:station:USF.COMPS:CAM:1,2013-11-12T02:24:00Z,27.7650,-82.6490,1018.41,1111122 
COMPS,ioos:station:USF.COMPS:CAM:1,2013-11-12T02:30:00Z,27.7650,-82.6490,1018.48,1111122 
COMPS,ioos:station:USF.COMPS:CAM:1,2013-11-12T02:36:00Z,27.7650,-82.6490,1018.5,1111122 
COMPS,ioos:station:USF.COMPS:CAM:1,2013-11-12T02:42:00Z,27.7650,-82.6490,1018.49,1111122 
COMPS,ioos:station:USF.COMPS:CAM:1,2013-11-12T02:48:00Z,27.7650,-82.6490,1018.57,1111122 
COMPS,ioos:station:USF.COMPS:CAM:1,2013-11-12T02:54:00Z,27.7650,-82.6490,1018.61,1111122 
COMPS,ioos:station:USF.COMPS:CAM:1,2013-11-12T03:00:00Z,27.7650,-82.6490,1018.64,1111122 
COMPS,ioos:station:USF.COMPS:CAM:1,2013-11-12T03:06:00Z,27.7650,-82.6490,1018.78,1111122 
COMPS,ioos:station:USF.COMPS:CAM:1,2013-11-12T03:12:00Z,27.7650,-82.6490,1018.88,1111122 
COMPS,ioos:station:USF.COMPS:CAM:1,2013-11-12T03:18:00Z,27.7650,-82.6490,1018.89,1111122 
COMPS,ioos:station:USF.COMPS:CAM:1,2013-11-12T03:24:00Z,27.7650,-82.6490,1018.92,1111122 
COMPS,ioos:station:USF.COMPS:CAM:1,2013-11-12T03:30:00Z,27.7650,-82.6490,1019.02,1111122 
COMPS,ioos:station:USF.COMPS:CAM:1,2013-11-12T03:36:00Z,27.7650,-82.6490,1019.04,1111122 
COMPS,ioos:station:USF.COMPS:CAM:1,2013-11-12T03:42:00Z,27.7650,-82.6490,1019.02,1111122 
COMPS,ioos:station:USF.COMPS:CAM:1,2013-11-12T03:48:00Z,27.7650,-82.6490,1018.96,1111122 
COMPS,ioos:station:USF.COMPS:CAM:1,2013-11-12T03:54:00Z,27.7650,-82.6490,1018.97,1111122 
COMPS,ioos:station:USF.COMPS:CAM:1,2013-11-12T04:00:00Z,27.7650,-82.6490,1018.97,1111122 
COMPS,ioos:station:USF.COMPS:CAM:1,2013-11-12T04:06:00Z,27.7650,-82.6490,1019.01,1111122 
COMPS,ioos:station:USF.COMPS:CAM:1,2013-11-12T04:12:00Z,27.7650,-82.6490,1019.02,1111122 
COMPS,ioos:station:USF.COMPS:CAM:1,2013-11-12T04:18:00Z,27.7650,-82.6490,1018.97,1111122 
COMPS,ioos:station:USF.COMPS:CAM:1,2013-11-12T04:24:00Z,27.7650,-82.6490,1018.9,1111122 
COMPS,ioos:station:USF.COMPS:CAM:1,2013-11-12T04:30:00Z,27.7650,-82.6490,1018.89,1111122 
COMPS,ioos:station:USF.COMPS:CAM:1,2013-11-12T04:36:00Z,27.7650,-82.6490,1018.78,1111122 
COMPS,ioos:station:USF.COMPS:CAM:1,2013-11-12T04:42:00Z,27.7650,-82.6490,1018.74,1111122 
COMPS,ioos:station:USF.COMPS:CAM:1,2013-11-12T04:48:00Z,27.7650,-82.6490,1018.62,1111122 
COMPS,ioos:station:USF.COMPS:CAM:1,2013-11-12T04:54:00Z,27.7650,-82.6490,1018.62,1111122 
COMPS,ioos:station:USF.COMPS:CAM:1,2013-11-12T05:00:00Z,27.7650,-82.6490,1018.57,1111122 
COMPS,ioos:station:USF.COMPS:CAM:1,2013-11-12T05:06:00Z,27.7650,-82.6490,1018.52,1111122 
COMPS,ioos:station:USF.COMPS:CAM:1,2013-11-12T05:12:00Z,27.7650,-82.6490,1018.52,1111122 
COMPS,ioos:station:USF.COMPS:CAM:1,2013-11-12T05:18:00Z,27.7650,-82.6490,1018.44,1111122 
COMPS,ioos:station:USF.COMPS:CAM:1,2013-11-12T05:24:00Z,27.7650,-82.6490,1018.41,1111122 
COMPS,ioos:station:USF.COMPS:CAM:1,2013-11-12T05:30:00Z,27.7650,-82.6490,1018.44,1111122 
COMPS,ioos:station:USF.COMPS:CAM:1,2013-11-12T05:36:00Z,27.7650,-82.6490,1018.38,1111122 
COMPS,ioos:station:USF.COMPS:CAM:1,2013-11-12T05:42:00Z,27.7650,-82.6490,1018.36,1111122 
COMPS,ioos:station:USF.COMPS:CAM:1,2013-11-12T05:48:00Z,27.7650,-82.6490,1018.29,1111122 
COMPS,ioos:station:USF.COMPS:CAM:1,2013-11-12T05:54:00Z,27.7650,-82.6490,1018.24,1111122 
COMPS,ioos:station:USF.COMPS:CAM:1,2013-11-12T06:00:00Z,27.7650,-82.6490,1018.18,1111122 
COMPS,ioos:station:USF.COMPS:CAM:1,2013-11-12T06:06:00Z,27.7650,-82.6490,1018.09,1111122 
COMPS,ioos:station:USF.COMPS:CAM:1,2013-11-12T06:12:00Z,27.7650,-82.6490,1018.05,1111122 
COMPS,ioos:station:USF.COMPS:CAM:1,2013-11-12T06:18:00Z,27.7650,-82.6490,1018.05,1111122 
COMPS,ioos:station:USF.COMPS:CAM:1,2013-11-12T06:24:00Z,27.7650,-82.6490,1018.01,1111122 
COMPS,ioos:station:USF.COMPS:CAM:1,2013-11-12T06:30:00Z,27.7650,-82.6490,1017.98,1111122 
COMPS,ioos:station:USF.COMPS:CAM:1,2013-11-12T06:36:00Z,27.7650,-82.6490,1017.96,1111122 
COMPS,ioos:station:USF.COMPS:CAM:1,2013-11-12T06:42:00Z,27.7650,-82.6490,1017.94,1111122 
COMPS,ioos:station:USF.COMPS:CAM:1,2013-11-12T06:48:00Z,27.7650,-82.6490,1018.02,1111122 
COMPS,ioos:station:USF.COMPS:CAM:1,2013-11-12T06:54:00Z,27.7650,-82.6490,1018.04,1111122 
COMPS,ioos:station:USF.COMPS:CAM:1,2013-11-12T07:00:00Z,27.7650,-82.6490,1017.93,1111122 
COMPS,ioos:station:USF.COMPS:CAM:1,2013-11-12T07:06:00Z,27.7650,-82.6490,1017.96,1111122 
COMPS,ioos:station:USF.COMPS:CAM:1,2013-11-12T07:12:00Z,27.7650,-82.6490,1017.96,1111122 
COMPS,ioos:station:USF.COMPS:CAM:1,2013-11-12T07:18:00Z,27.7650,-82.6490,1017.93,1111122 
COMPS,ioos:station:USF.COMPS:CAM:1,2013-11-12T07:24:00Z,27.7650,-82.6490,1017.85,1111122 
COMPS,ioos:station:USF.COMPS:CAM:1,2013-11-12T07:30:00Z,27.7650,-82.6490,1017.84,1111122 
COMPS,ioos:station:USF.COMPS:CAM:1,2013-11-12T07:36:00Z,27.7650,-82.6490,1017.8,1111122 
COMPS,ioos:station:USF.COMPS:CAM:1,2013-11-12T07:42:00Z,27.7650,-82.6490,1017.82,1111122 
COMPS,ioos:station:USF.COMPS:CAM:1,2013-11-12T07:48:00Z,27.7650,-82.6490,1017.81,1111122 
COMPS,ioos:station:USF.COMPS:CAM:1,2013-11-12T07:54:00Z,27.7650,-82.6490,1017.73,1111122 
COMPS,ioos:station:USF.COMPS:CAM:1,2013-11-12T08:00:00Z,27.7650,-82.6490,1017.84,1111122 
COMPS,ioos:station:USF.COMPS:CAM:1,2013-11-12T08:06:00Z,27.7650,-82.6490,1017.82,1111122 
COMPS,ioos:station:USF.COMPS:CAM:1,2013-11-12T08:12:00Z,27.7650,-82.6490,1017.81,1111122 
COMPS,ioos:station:USF.COMPS:CAM:1,2013-11-12T08:18:00Z,27.7650,-82.6490,1017.8,1111122 
COMPS,ioos:station:USF.COMPS:CAM:1,2013-11-12T08:24:00Z,27.7650,-82.6490,1017.82,1111122 
COMPS,ioos:station:USF.COMPS:CAM:1,2013-11-12T08:30:00Z,27.7650,-82.6490,1017.73,1111122 
COMPS,ioos:station:USF.COMPS:CAM:1,2013-11-12T08:36:00Z,27.7650,-82.6490,1017.68,1111122 
COMPS,ioos:station:USF.COMPS:CAM:1,2013-11-12T08:42:00Z,27.7650,-82.6490,1017.66,1111122 
COMPS,ioos:station:USF.COMPS:CAM:1,2013-11-12T08:48:00Z,27.7650,-82.6490,1017.66,1111122 
COMPS,ioos:station:USF.COMPS:CAM:1,2013-11-12T08:54:00Z,27.7650,-82.6490,1017.64,1111122 
COMPS,ioos:station:USF.COMPS:CAM:1,2013-11-12T09:00:00Z,27.7650,-82.6490,1017.6,1111122 
COMPS,ioos:station:USF.COMPS:CAM:1,2013-11-12T09:06:00Z,27.7650,-82.6490,1017.52,1111122 
COMPS,ioos:station:USF.COMPS:CAM:1,2013-11-12T09:12:00Z,27.7650,-82.6490,1017.49,1111122 
COMPS,ioos:station:USF.COMPS:CAM:1,2013-11-12T09:18:00Z,27.7650,-82.6490,1017.48,1111122 
COMPS,ioos:station:USF.COMPS:CAM:1,2013-11-12T09:24:00Z,27.7650,-82.6490,1017.42,1111122 
COMPS,ioos:station:USF.COMPS:CAM:1,2013-11-12T09:30:00Z,27.7650,-82.6490,1017.5,1111122 
COMPS,ioos:station:USF.COMPS:CAM:1,2013-11-12T09:36:00Z,27.7650,-82.6490,1017.44,1111122 
COMPS,ioos:station:USF.COMPS:CAM:1,2013-11-12T09:42:00Z,27.7650,-82.6490,1017.44,1111122 
COMPS,ioos:station:USF.COMPS:CAM:1,2013-11-12T09:48:00Z,27.7650,-82.6490,1017.52,1111122 
COMPS,ioos:station:USF.COMPS:CAM:1,2013-11-12T09:54:00Z,27.7650,-82.6490,1017.54,1111122 
COMPS,ioos:station:USF.COMPS:CAM:1,2013-11-12T10:00:00Z,27.7650,-82.6490,1017.56,1111122 
COMPS,ioos:station:USF.COMPS:CAM:1,2013-11-12T10:06:00Z,27.7650,-82.6490,1017.64,1111122 
COMPS,ioos:station:USF.COMPS:CAM:1,2013-11-12T10:12:00Z,27.7650,-82.6490,1017.64,1111122 
COMPS,ioos:station:USF.COMPS:CAM:1,2013-11-12T10:18:00Z,27.7650,-82.6490,1017.68,1111122 
COMPS,ioos:station:USF.COMPS:CAM:1,2013-11-12T10:24:00Z,27.7650,-82.6490,1017.68,1111122 
COMPS,ioos:station:USF.COMPS:CAM:1,2013-11-12T10:30:00Z,27.7650,-82.6490,1017.84,1111122 
COMPS,ioos:station:USF.COMPS:CAM:1,2013-11-12T10:36:00Z,27.7650,-82.6490,1017.94,1111122 
COMPS,ioos:station:USF.COMPS:CAM:1,2013-11-12T10:42:00Z,27.7650,-82.6490,1017.97,1111122 
COMPS,ioos:station:USF.COMPS:CAM:1,2013-11-12T10:48:00Z,27.7650,-82.6490,1017.96,1111122 
COMPS,ioos:station:USF.COMPS:CAM:1,2013-11-12T10:54:00Z,27.7650,-82.6490,1017.93,1111122 
COMPS,ioos:station:USF.COMPS:CAM:1,2013-11-12T11:00:00Z,27.7650,-82.6490,1017.96,1111122 
COMPS,ioos:station:USF.COMPS:CAM:1,2013-11-12T11:06:00Z,27.7650,-82.6490,1017.93,1111122 
COMPS,ioos:station:USF.COMPS:CAM:1,2013-11-12T11:12:00Z,27.7650,-82.6490,1018.04,1111122 
COMPS,ioos:station:USF.COMPS:CAM:1,2013-11-12T11:18:00Z,27.7650,-82.6490,1018.05,1111122 
COMPS,ioos:station:USF.COMPS:CAM:1,2013-11-12T11:24:00Z,27.7650,-82.6490,1018.14,1111122 
COMPS,ioos:station:USF.COMPS:CAM:1,2013-11-12T11:30:00Z,27.7650,-82.6490,1018.21,1111122 
COMPS,ioos:station:USF.COMPS:CAM:1,2013-11-12T11:36:00Z,27.7650,-82.6490,1018.24,1111122 
COMPS,ioos:station:USF.COMPS:CAM:1,2013-11-12T11:42:00Z,27.7650,-82.6490,1018.25,1111122 
COMPS,ioos:station:USF.COMPS:CAM:1,2013-11-12T11:48:00Z,27.7650,-82.6490,1018.29,1111122 
COMPS,ioos:station:USF.COMPS:CAM:1,2013-11-12T11:54:00Z,27.7650,-82.6490,1018.29,1111122 
COMPS,ioos:station:USF.COMPS:CAM:1,2013-11-12T12:00:00Z,27.7650,-82.6490,1018.29,1111122 
COMPS,ioos:station:USF.COMPS:CAM:1,2013-11-12T12:06:00Z,27.7650,-82.6490,1018.25,1111122 
COMPS,ioos:station:USF.COMPS:CAM:1,2013-11-12T12:12:00Z,27.7650,-82.6490,1018.21,1111122 
COMPS,ioos:station:USF.COMPS:CAM:1,2013-11-12T12:18:00Z,27.7650,-82.6490,1018.3,1111122 
COMPS,ioos:station:USF.COMPS:CAM:1,2013-11-12T12:24:00Z,27.7650,-82.6490,1018.32,1111122 
COMPS,ioos:station:USF.COMPS:CAM:1,2013-11-12T12:30:00Z,27.7650,-82.6490,1018.38,1111122 
COMPS,ioos:station:USF.COMPS:CAM:1,2013-11-12T12:36:00Z,27.7650,-82.6490,1018.49,1111122 
COMPS,ioos:station:USF.COMPS:CAM:1,2013-11-12T12:42:00Z,27.7650,-82.6490,1018.53,1111122 
COMPS,ioos:station:USF.COMPS:CAM:1,2013-11-12T12:48:00Z,27.7650,-82.6490,1018.53,1111122 
COMPS,ioos:station:USF.COMPS:CAM:1,2013-11-12T12:54:00Z,27.7650,-82.6490,1018.54,1111122 
COMPS,ioos:station:USF.COMPS:CAM:1,2013-11-12T13:00:00Z,27.7650,-82.6490,1018.64,1111122 
COMPS,ioos:station:USF.COMPS:CAM:1,2013-11-12T13:06:00Z,27.7650,-82.6490,1018.7,1111122 
COMPS,ioos:station:USF.COMPS:CAM:1,2013-11-12T13:12:00Z,27.7650,-82.6490,1018.76,1111122 
COMPS,ioos:station:USF.COMPS:CAM:1,2013-11-12T13:18:00Z,27.7650,-82.6490,1018.76,1111122 
COMPS,ioos:station:USF.COMPS:CAM:1,2013-11-12T13:24:00Z,27.7650,-82.6490,1018.76,1111122 
COMPS,ioos:station:USF.COMPS:CAM:1,2013-11-12T13:30:00Z,27.7650,-82.6490,1018.78,1111122 
COMPS,ioos:station:USF.COMPS:CAM:1,2013-11-12T13:36:00Z,27.7650,-82.6490,1018.77,1111122 
COMPS,ioos:station:USF.COMPS:CAM:1,2013-11-12T13:42:00Z,27.7650,-82.6490,1018.85,1111122 
COMPS,ioos:station:USF.COMPS:CAM:1,2013-11-12T13:48:00Z,27.7650,-82.6490,1018.88,1111122 
COMPS,ioos:station:USF.COMPS:CAM:1,2013-11-12T13:54:00Z,27.7650,-82.6490,1018.86,1111122 
COMPS,ioos:station:USF.COMPS:CAM:1,2013-11-12T14:00:00Z,27.7650,-82.6490,1018.86,1111122 
COMPS,ioos:station:USF.COMPS:CAM:1,2013-11-12T14:06:00Z,27.7650,-82.6490,1018.97,1111122 
COMPS,ioos:station:USF.COMPS:CAM:1,2013-11-12T14:12:00Z,27.7650,-82.6490,1019.02,1111122 
COMPS,ioos:station:USF.COMPS:CAM:1,2013-11-12T14:18:00Z,27.7650,-82.6490,1019.1,1111122 
COMPS,ioos:station:USF.COMPS:CAM:1,2013-11-12T14:24:00Z,27.7650,-82.6490,1019.14,1111122 
COMPS,ioos:station:USF.COMPS:CAM:1,2013-11-12T14:30:00Z,27.7650,-82.6490,1019.2,1111122 
COMPS,ioos:station:USF.COMPS:CAM:1,2013-11-12T14:36:00Z,27.7650,-82.6490,1019.22,1111122 
COMPS,ioos:station:USF.COMPS:CAM:1,2013-11-12T14:42:00Z,27.7650,-82.6490,1019.2,1111122 
COMPS,ioos:station:USF.COMPS:CAM:1,2013-11-12T14:48:00Z,27.7650,-82.6490,1019.17,1111122 
COMPS,ioos:station:USF.COMPS:CAM:1,2013-11-12T14:54:00Z,27.7650,-82.6490,1019.16,1111122 
COMPS,ioos:station:USF.COMPS:CAM:1,2013-11-12T15:00:00Z,27.7650,-82.6490,1019.14,1111122 
COMPS,ioos:station:USF.COMPS:CAM:1,2013-11-12T15:06:00Z,27.7650,-82.6490,1019.13,1111122 
COMPS,ioos:station:USF.COMPS:CAM:1,2013-11-12T15:12:00Z,27.7650,-82.6490,1019.13,1111122 
COMPS,ioos:station:USF.COMPS:CAM:1,2013-11-12T15:18:00Z,27.7650,-82.6490,1019.09,1111122 
COMPS,ioos:station:USF.COMPS:CAM:1,2013-11-12T15:24:00Z,27.7650,-82.6490,1019.04,1111122 
COMPS,ioos:station:USF.COMPS:CAM:1,2013-11-12T15:30:00Z,27.7650,-82.6490,1018.98,1111122 
COMPS,ioos:station:USF.COMPS:CAM:1,2013-11-12T15:36:00Z,27.7650,-82.6490,1018.88,1111122 
COMPS,ioos:station:USF.COMPS:CAM:1,2013-11-12T15:42:00Z,27.7650,-82.6490,1018.76,1111122 
COMPS,ioos:station:USF.COMPS:CAM:1,2013-11-12T15:48:00Z,27.7650,-82.6490,1018.73,1111122 
COMPS,ioos:station:USF.COMPS:CAM:1,2013-11-12T15:54:00Z,27.7650,-82.6490,1018.69,1111122 
COMPS,ioos:station:USF.COMPS:CAM:1,2013-11-12T16:00:00Z,27.7650,-82.6490,1018.64,1111122 
COMPS,ioos:station:USF.COMPS:CAM:1,2013-11-12T16:06:00Z,27.7650,-82.6490,1018.58,1111122 
COMPS,ioos:station:USF.COMPS:CAM:1,2013-11-12T16:12:00Z,27.7650,-82.6490,1018.53,1111122 
COMPS,ioos:station:USF.COMPS:CAM:1,2013-11-12T16:18:00Z,27.7650,-82.6490,1018.49,1111122 
COMPS,ioos:station:USF.COMPS:CAM:1,2013-11-12T16:24:00Z,27.7650,-82.6490,1018.45,1111122 
COMPS,ioos:station:USF.COMPS:CAM:1,2013-11-12T16:30:00Z,27.7650,-82.6490,1018.37,1111122 
COMPS,ioos:station:USF.COMPS:CAM:1,2013-11-12T16:36:00Z,27.7650,-82.6490,1018.28,1111122 
COMPS,ioos:station:USF.COMPS:CAM:1,2013-11-12T16:42:00Z,27.7650,-82.6490,1018.14,1111122 
COMPS,ioos:station:USF.COMPS:CAM:1,2013-11-12T16:48:00Z,27.7650,-82.6490,1017.97,1111122 
COMPS,ioos:station:USF.COMPS:CAM:1,2013-11-12T16:54:00Z,27.7650,-82.6490,1017.81,1111122 
COMPS,ioos:station:USF.COMPS:CAM:1,2013-11-12T17:00:00Z,27.7650,-82.6490,1017.77,1111122 
COMPS,ioos:station:USF.COMPS:CAM:1,2013-11-12T17:06:00Z,27.7650,-82.6490,1017.68,1111122 
COMPS,ioos:station:USF.COMPS:CAM:1,2013-11-12T17:12:00Z,27.7650,-82.6490,1017.69,1111122 
COMPS,ioos:station:USF.COMPS:CAM:1,2013-11-12T17:18:00Z,27.7650,-82.6490,1017.58,1111122 
COMPS,ioos:station:USF.COMPS:CAM:1,2013-11-12T17:24:00Z,27.7650,-82.6490,1017.53,1111122 
COMPS,ioos:station:USF.COMPS:CAM:1,2013-11-12T17:30:00Z,27.7650,-82.6490,1017.46,1111122 
COMPS,ioos:station:USF.COMPS:CAM:1,2013-11-12T17:36:00Z,27.7650,-82.6490,1017.4,1111122 
COMPS,ioos:station:USF.COMPS:CAM:1,2013-11-12T17:42:00Z,27.7650,-82.6490,1017.33,1111122 
COMPS,ioos:station:USF.COMPS:CAM:1,2013-11-12T17:48:00Z,27.7650,-82.6490,1017.17,1111122 
COMPS,ioos:station:USF.COMPS:CAM:1,2013-11-12T17:54:00Z,27.7650,-82.6490,1017.0,1111122 
COMPS,ioos:station:USF.COMPS:CAM:1,2013-11-12T18:00:00Z,27.7650,-82.6490,1016.88,1111122 
COMPS,ioos:station:USF.COMPS:CAM:1,2013-11-12T18:06:00Z,27.7650,-82.6490,1016.74,1111122 
COMPS,ioos:station:USF.COMPS:CAM:1,2013-11-12T18:12:00Z,27.7650,-82.6490,1016.57,1111122 
COMPS,ioos:station:USF.COMPS:CAM:1,2013-11-12T18:18:00Z,27.7650,-82.6490,1016.49,1111122 
COMPS,ioos:station:USF.COMPS:CAM:1,2013-11-12T18:24:00Z,27.7650,-82.6490,1016.38,1111122 
COMPS,ioos:station:USF.COMPS:CAM:1,2013-11-12T18:30:00Z,27.7650,-82.6490,1016.3,1111122 
COMPS,ioos:station:USF.COMPS:CAM:1,2013-11-12T18:36:00Z,27.7650,-82.6490,1016.24,1111122 
COMPS,ioos:station:USF.COMPS:CAM:1,2013-11-12T18:42:00Z,27.7650,-82.6490,1016.21,1111122 
COMPS,ioos:station:USF.COMPS:CAM:1,2013-11-12T18:48:00Z,27.7650,-82.6490,1016.12,1111122 
COMPS,ioos:station:USF.COMPS:CAM:1,2013-11-12T18:54:00Z,27.7650,-82.6490,1016.12,1111122 
COMPS,ioos:station:USF.COMPS:CAM:1,2013-11-13T09:00:00Z,27.7650,-82.6490,1018.5,1111122 
COMPS,ioos:station:USF.COMPS:CAM:1,2013-11-13T09:06:00Z,27.7650,-82.6490,1018.57,1111122 
COMPS,ioos:station:USF.COMPS:CAM:1,2013-11-13T09:12:00Z,27.7650,-82.6490,1018.6,1111122 
COMPS,ioos:station:USF.COMPS:CAM:1,2013-11-13T09:18:00Z,27.7650,-82.6490,1018.88,1111122 
COMPS,ioos:station:USF.COMPS:CAM:1,2013-11-13T09:24:00Z,27.7650,-82.6490,1019.01,1111122 
COMPS,ioos:station:USF.COMPS:CAM:1,2013-11-13T09:30:00Z,27.7650,-82.6490,1018.93,1111122 
COMPS,ioos:station:USF.COMPS:CAM:1,2013-11-13T09:36:00Z,27.7650,-82.6490,1019.0,1111122 
COMPS,ioos:station:USF.COMPS:CAM:1,2013-11-13T09:42:00Z,27.7650,-82.6490,1019.13,1111122 
COMPS,ioos:station:USF.COMPS:CAM:1,2013-11-13T09:48:00Z,27.7650,-82.6490,1019.16,1111122 
COMPS,ioos:station:USF.COMPS:CAM:1,2013-11-13T09:54:00Z,27.7650,-82.6490,1019.32,1111122 
COMPS,ioos:station:USF.COMPS:CAM:1,2013-11-13T10:00:00Z,27.7650,-82.6490,1019.44,1111122 
COMPS,ioos:station:USF.COMPS:CAM:1,2013-11-13T10:06:00Z,27.7650,-82.6490,1019.6,1111122 
COMPS,ioos:station:USF.COMPS:CAM:1,2013-11-13T10:12:00Z,27.7650,-82.6490,1019.69,1111122 
COMPS,ioos:station:USF.COMPS:CAM:1,2013-11-13T10:18:00Z,27.7650,-82.6490,1019.78,1111122 
COMPS,ioos:station:USF.COMPS:CAM:1,2013-11-13T10:24:00Z,27.7650,-82.6490,1019.81,1111122 
COMPS,ioos:station:USF.COMPS:CAM:1,2013-11-13T10:30:00Z,27.7650,-82.6490,1020.09,1111122 
COMPS,ioos:station:USF.COMPS:CAM:1,2013-11-13T10:36:00Z,27.7650,-82.6490,1020.0,1111122 
COMPS,ioos:station:USF.COMPS:CAM:1,2013-11-13T10:42:00Z,27.7650,-82.6490,1020.01,1111122 
COMPS,ioos:station:USF.COMPS:CAM:1,2013-11-13T10:48:00Z,27.7650,-82.6490,1020.12,1111122 
COMPS,ioos:station:USF.COMPS:CAM:1,2013-11-13T10:54:00Z,27.7650,-82.6490,1020.3,1111122 
COMPS,ioos:station:USF.COMPS:CAM:1,2013-11-13T11:00:00Z,27.7650,-82.6490,1020.72,1111122 
COMPS,ioos:station:USF.COMPS:CAM:1,2013-11-13T11:06:00Z,27.7650,-82.6490,1020.93,1111122 
COMPS,ioos:station:USF.COMPS:CAM:1,2013-11-13T11:12:00Z,27.7650,-82.6490,1020.74,1111122 
COMPS,ioos:station:USF.COMPS:CAM:1,2013-11-13T11:18:00Z,27.7650,-82.6490,1020.82,1111122 
COMPS,ioos:station:USF.COMPS:CAM:1,2013-11-13T11:24:00Z,27.7650,-82.6490,1020.94,1111122 
COMPS,ioos:station:USF.COMPS:CAM:1,2013-11-13T11:30:00Z,27.7650,-82.6490,1021.02,1111122 